カタログに戻る

NOAA 16 DEB

運用中SSO
NORAD 41232·DEBRIS·🇺🇸 United States

打ち上げ Sep 21, 2000 から Vandenberg Space Force Base

Loading…

次のパス (今後24時間)

TLE

最新Source: Space-Track

元期: Sep 14, 2026, 11:03 UTC

1 41232U 00055EM  26257.46067661  .00003070  00000-0  13114-2 0  9992
2 41232  98.8754 334.6687 0035167 356.9981   3.0982 14.25421392552653

AllMySatでNOAA 16 DEBをリアルタイム追跡

Download on the App Store